Location: Bay Ridge
(40.6340°N, 74.0146°W)
Time: 10:35:38
(UTC+00:00)

NOSS 3-3 (A) - Pass Details

Date: 15 November 2019
Orbit: 848 x 1364 km, 63.4° (Epoch: 05 December)

Event Time Altitude Azimuth Distance (km) Brightness Sun altitude
Exits shadow 09:51:11 21° 221° (SW) 1,914 5.2 -21.1°
Maximum altitude 09:55:20 77° 306° (NW) 962 3.8 -20.3°
Drops below altitude 10° 10:01:52 10° 32° (NNE) 2,816 6.7 -19.1°
Sets 10:04:40 0° 34° (NE) 3,851 7.5 -18.6°
